Location: Newark
(46.7636°N, 1.8358°W)
Time: 21:52:43
(UTC+00:00)

Vanguard 1 Rocket - Pass Details

Date: 22 October 2019
Orbit: 651 x 4225 km, 34.3° (Epoch: 12 November)

Event Time Altitude Azimuth Distance (km) Brightness Sun altitude
Rises 13:05:39 0° 263° (W) 6,213 12.0 29.9°
Reaches altitude 10° 13:09:10 10° 259° (W) 5,584 11.9 29.6°
Maximum altitude 13:27:32 57° 188° (S) 4,333 12.0 28.3°
Drops below altitude 10° 13:52:35 10° 118° (ESE) 7,292 12.0 26.2°
Sets 13:58:04 0° 115° (ESE) 8,118 12.1 25.7°
